Showing default

UND ROADS 2, 64549

Orbit data source: Space-Track

UND ROADS 2, 64549 is an American payload satellite in SSO that was launched on Mon, 23 Jun 2025 UTC via an FALCON 9 launch vehicle from the Air Force Western Test Range (AFWTR). Payload-class satellites include a variety of spacecraft equipped with specific instruments for various scientific and technological missions. These include communications satellites like Starlink; space stations such as the ISS; scientific satellites like the Hubble; Earth observation satellites from companies like Planet Labs, Umbra, and HawkEye 360; GPS; miniature CubeSats for education and research; and military/defense satellites.

Loading next visibility...
Identifier
64549, 2025-135X
Orbit
SSO
Country
Flag of USUS
Related business
Manufacturer
UND
Mission
Operational Amateur Technology
Bus & Motor
CUBESAT 3U, Unknown motor
Mass
5.4 kg wet, 5.4 kg dry
Launch date (UTC)
2025-06-23 (8 months ago)
Launch vehicle
FALCON 9
Launch site
Air Force Western Test Range (AFWTR)
Object type
Payload
Rocket body
Debris
Shape & HBR
Box, 0.2 m
Radar Cross Section
0.035 m², Small (<0.1 m²)

Expand to show TLE details & history
Last TLE update: 11 hours ago

TLE from 11 hours ago
0 UND ROADS 2
1 64549U 25135X   26062.28406569  .00009776  00000-0  42685-3 0  9997
2 64549  97.4656 178.9830 0002727 108.9357 251.2175 15.22328648 38795
Epoch: 2026-03-03T06:49Z
TLE epoch observation values (Epoch: 2026-03-03T06:49:03.275Z)
Latitude
-0.00003°
Longitude
-84.34598°
Altitude
502.515 km
Speed
7.613 km/s
True Right ascension
11h 55m 55s
True Declination
0° 00' 00"
Sunlit
Object was in full shadow at epoch
Visualization orbit readout
Latitude
Unknown
Longitude
Unknown
Altitude
Unknown
Speed
Unknown
Apparent Right ascension
Unknown
Apparent Declination
Unknown
Sunlit
N/A
Visualization observer readout
Local Sidereal Time
21:49:04
Azimuth
Unknown
Elevation
Unknown
Doppler factor
Unknown
Orbital elements
Apogee altitude
497.659 km
Perigee altitude
493.909 km
Semi-major axis
6,873.921 km
Eccentricity
0.00027
Inclination
97.4656°
RAAN
178.983°
Arg. of periapsis
108.9357°
True anomaly
251.18792°
Mean anomaly
251.2175°
Eccentric anomaly
251.20271°
Mean motion
3.80835 °/min
Orbital period
94.53 mins
BSTAR
0.00042685
Loading maneuver chart data...
Computing Atmospheric mass density...
Loading historical data...
Loading historical data...
Loading historical data...
Loading historical data...
Loading historical data...
Loading historical data...
Loading historical data...

Documentation

Showing up to 5 results
|